Weather History for KILM - November, 2012

Change the Weather History Date:

Wednesday, November 7, 2012

  Actual Average Record
Temperature  
Mean Temperature 47 °F 59 °F  
Max Temperature 55 °F 70 °F 80 °F (1975)
Min Temperature 39 °F 48 °F 31 °F (1962)
Degree Days  
Heating Degree Days 18 7  
Month to date heating degree days 100 45  
Since 1 July heating degree days 188 142  
Cooling Degree Days 0 1  
Month to date cooling degree days 0 7  
Year to date cooling degree days 2169 2021  
Moisture  
Dew Point 37 °F    
Average Humidity 70    
Maximum Humidity 85    
Minimum Humidity 54    
Precipitation  
Precipitation 0.00 in 0.11 in 2.18 in (1959)
Month to date precipitation 0.48 0.73  
Year to date precipitation 41.91 51.43  
Snow  
Snow 0.00 in 0.00 in - ()
Month to date snowfall 0.0 0.0  
Since 1 July snowfall 0.0 0.0  
Since 1 September snowfall 0.0  
Snow Depth 0.00 in    
Sea Level Pressure  
Sea Level Pressure 29.86 in    
Wind  
Wind Speed 8 mph (NNW)    
Max Wind Speed 16 mph    
Max Gust Speed 20 mph    
Visibility 10 miles    
Events      
T = Trace of Precipitation, MM = Missing Value Source: NWS Daily Summary

Daily Weather History Graph

Daily Weather History Graph

Search for Another Location

Airport or City:

Trip Planner

Search our weather history database for the weather conditions in past years. The results will help you decide how hot, cold, wet, or windy it might be!

Date:

Astronomy

Nov. 07, 2012 Rise Set
Actual Time 6:37 AM EST 5:12 PM EST
Civil Twilight 6:11 AM EST 5:38 PM EST
Nautical Twilight 5:41 AM EST 6:08 PM EST
Astronomical Twilight 5:11 AM EST 6:38 PM EST
Moon No Moon Rise 1:04 PM EST (11/7)
Length of Visible Light 11h 27m
Length of Day
10h 35m
Last Quarter, 43% of the Moon is Illuminated
Nov 7
Last Quarter
Nov 13
New
Nov 20
First Quarter
Nov 28
Full
Dec 6
Last Quarter

Hourly Weather History & Observations

Time (EST) Temp. Windchill Dew Point Humidity Pressure Visibility Wind Dir Wind Speed Gust Speed Precip Events Conditions
12:53 AM 39.9 °F 34.5 °F 35.1 °F 83% 29.87 in 10.0 mi NNW 8.1 mph - N/A   Clear
1:53 AM 39.9 °F 34.5 °F 35.1 °F 83% 29.86 in 10.0 mi NNW 8.1 mph - N/A   Mostly Cloudy
2:19 AM 39.2 °F 33.0 °F 33.8 °F 81% 29.84 in 10.0 mi NNW 9.2 mph - N/A   Overcast
2:53 AM 41.0 °F 34.7 °F 34.0 °F 76% 29.84 in 10.0 mi NNW 10.4 mph - N/A   Overcast
3:53 AM 39.9 °F 33.9 °F 34.0 °F 79% 29.84 in 10.0 mi NW 9.2 mph - N/A   Overcast
4:53 AM 39.9 °F 35.1 °F 34.0 °F 79% 29.85 in 10.0 mi NW 6.9 mph - N/A   Overcast
5:53 AM 39.0 °F 33.4 °F 34.0 °F 82% 29.85 in 10.0 mi NW 8.1 mph - N/A   Overcast
6:53 AM 39.0 °F 34.8 °F 34.0 °F 82% 29.86 in 10.0 mi NW 5.8 mph - N/A   Mostly Cloudy
7:53 AM 42.1 °F 37.7 °F 36.0 °F 79% 29.87 in 10.0 mi NW 6.9 mph - N/A   Overcast
8:01 AM 42.8 °F 38.0 °F 37.4 °F 81% 29.87 in 10.0 mi NW 8.1 mph - N/A   Overcast
8:40 AM 44.6 °F 39.2 °F 37.4 °F 76% 29.87 in 10.0 mi NNW 10.4 mph - N/A   Overcast
8:53 AM 45.0 °F 39.7 °F 37.9 °F 76% 29.87 in 10.0 mi NNW 10.4 mph - N/A   Overcast
9:53 AM 46.9 °F - 39.9 °F 77% 29.87 in 10.0 mi North 11.5 mph - N/A   Overcast
10:03 AM 48.2 °F - 39.2 °F 71% 29.87 in 10.0 mi North 6.9 mph - N/A   Overcast
10:53 AM 50.0 °F - 41.0 °F 71% 29.86 in 10.0 mi North 10.4 mph - N/A   Overcast
11:53 AM 52.0 °F - 41.0 °F 66% 29.84 in 10.0 mi NNW 11.5 mph - N/A   Overcast
12:53 PM 53.1 °F - 41.0 °F 64% 29.82 in 10.0 mi NNW 8.1 mph - N/A   Overcast
1:53 PM 54.0 °F - 39.0 °F 57% 29.82 in 10.0 mi NNW 11.5 mph - N/A   Overcast
2:53 PM 53.1 °F - 39.0 °F 59% 29.81 in 10.0 mi NNW 9.2 mph - N/A   Mostly Cloudy
3:53 PM 52.0 °F - 36.0 °F 54% 29.83 in 10.0 mi NNW 10.4 mph - N/A   Overcast
4:53 PM 50.0 °F - 36.0 °F 59% 29.84 in 10.0 mi NNW 8.1 mph - N/A   Mostly Cloudy
5:53 PM 48.0 °F - 37.0 °F 66% 29.87 in 10.0 mi NNW 4.6 mph - N/A   Mostly Cloudy
6:53 PM 46.0 °F 43.1 °F 37.0 °F 71% 29.89 in 10.0 mi NNW 5.8 mph - N/A   Clear
7:53 PM 43.0 °F 39.5 °F 37.0 °F 80% 29.90 in 10.0 mi North 5.8 mph - N/A   Clear
8:53 PM 39.9 °F 36.7 °F 36.0 °F 86% 29.91 in 10.0 mi North 4.6 mph - N/A   Clear
9:53 PM 39.9 °F - 35.1 °F 83% 29.92 in 10.0 mi Calm Calm - N/A   Clear
10:53 PM 39.0 °F 36.8 °F 35.1 °F 86% 29.93 in 10.0 mi NNW 3.5 mph - N/A   Clear
11:53 PM 41.0 °F 39.0 °F 35.1 °F 79% 29.93 in 10.0 mi NW 3.5 mph - N/A   Mostly Cloudy